Weather History for Newberry, MI

Change the Weather History Date:

Friday, January 25, 2013

  Actual Average Record
Temperature  
Mean Temperature 10 °F -  
Max Temperature 17 °F 23 °F 46 °F (1973)
Min Temperature 3 °F 8 °F -22 °F (1920)
Degree Days  
Heating Degree Days 55    
Moisture  
Dew Point 10 °F    
Average Humidity 87    
Maximum Humidity 93    
Minimum Humidity 79    
Precipitation  
Precipitation 0.00 in - - ()
Sea Level Pressure  
Sea Level Pressure 30.07 in    
Wind  
Wind Speed 7 mph (SE)    
Max Wind Speed 16 mph    
Max Gust Speed 24 mph    
Visibility 3 miles    
Events Snow    
Averages and records for this station are not official NWS values.
T = Trace of Precipitation, MM = Missing Value Source: NWS Daily Summary

Daily Weather History Graph

Daily Weather History Graph

Search for Another Location

Airport:

Trip Planner

Search our weather history database for the weather conditions in past years. The results will help you decide how hot, cold, wet, or windy it might be!

Date:

Astronomy

Jan. 25, 2013 Rise Set
Actual Time 8:12 AM EST 5:36 PM EST
Civil Twilight 7:39 AM EST 6:09 PM EST
Nautical Twilight 7:03 AM EST 6:45 PM EST
Astronomical Twilight 6:27 AM EST 7:21 PM EST
Moon 4:33 PM EST (1/25) 6:52 AM EST (1/25)
Length of Visible Light 10h 29m
Length of Day
9h 24m
Waxing Gibbous, 98% of the Moon is Illuminated
Jan 25
Waxing Gibbous
Jan 26
Full
Feb 3
Last Quarter
Feb 10
New
Feb 17
First Quarter

Hourly Weather History & Observations

Time (EST) Temp. Windchill Dew Point Humidity Pressure Visibility Wind Dir Wind Speed Gust Speed Precip Events Conditions
12:15 AM 3.2 °F - 1.4 °F 92% 30.38 in 10.0 mi Calm Calm - N/A   Mostly Cloudy
12:34 AM 5.0 °F -2.1 °F 1.4 °F 85% 30.37 in 5.0 mi SSE 3.5 mph - N/A Snow Light Snow
12:54 AM 6.8 °F -2.0 °F 3.2 °F 85% 30.35 in 3.0 mi SSE 4.6 mph - N/A Snow Light Snow
1:15 AM 8.6 °F 0.1 °F 3.2 °F 79% 30.34 in 2.5 mi SSE 4.6 mph - N/A Snow Light Snow
1:34 AM 8.6 °F -1.3 °F 5.0 °F 85% 30.32 in 7.0 mi SSE 5.8 mph - N/A Snow Light Snow
1:55 AM 8.6 °F -1.3 °F 6.8 °F 92% 30.31 in 10.0 mi SSE 5.8 mph - N/A Snow Light Snow
2:15 AM 8.6 °F 2.0 °F 6.8 °F 92% 30.31 in 3.0 mi SSE 3.5 mph - N/A Snow Light Snow
2:34 AM 10.4 °F 0.8 °F 6.8 °F 85% 30.30 in 1.8 mi South 5.8 mph - N/A Snow Light Snow
2:55 AM 10.4 °F -1.5 °F 8.6 °F 92% 30.29 in 2.0 mi SSE 8.1 mph - N/A Snow Light Snow
3:15 AM 10.4 °F -0.4 °F 8.6 °F 92% 30.28 in 1.5 mi SE 6.9 mph - N/A Snow Light Snow
3:34 AM 10.4 °F 0.8 °F 8.6 °F 92% 30.27 in 1.2 mi ESE 5.8 mph - N/A Snow Light Snow
3:55 AM 10.4 °F -1.5 °F 6.8 °F 85% 30.25 in 1.5 mi ESE 8.1 mph - N/A Snow Light Snow
4:14 AM 10.4 °F -0.4 °F 6.8 °F 85% 30.24 in 1.5 mi ESE 6.9 mph - N/A Snow Light Snow
4:34 AM 10.4 °F -2.4 °F 6.8 °F 85% 30.22 in 1.5 mi ESE 9.2 mph - N/A Snow Light Snow
4:55 AM 10.4 °F -1.5 °F 6.8 °F 85% 30.21 in 1.2 mi ESE 8.1 mph - N/A Snow Snow
5:14 AM 10.4 °F -1.5 °F 6.8 °F 85% 30.20 in 1.0 mi ESE 8.1 mph - N/A Snow Snow
5:35 AM 10.4 °F -2.4 °F 8.6 °F 92% 30.18 in 1.0 mi ESE 9.2 mph - N/A Snow Snow
5:55 AM 10.4 °F -2.4 °F 8.6 °F 92% 30.17 in 1.0 mi ESE 9.2 mph - N/A Snow Snow
6:14 AM 10.4 °F -2.4 °F 8.6 °F 92% 30.15 in 1.2 mi ESE 9.2 mph - N/A Snow Snow
6:35 AM 10.4 °F -1.5 °F 8.6 °F 92% 30.14 in 1.2 mi ESE 8.1 mph - N/A Snow Light Snow
6:55 AM 12.2 °F -4.3 °F 10.4 °F 92% 30.13 in 1.2 mi SE 16.1 mph 24.2 mph N/A Snow Light Snow
7:14 AM 12.2 °F -2.5 °F 10.4 °F 92% 30.12 in 1.2 mi SSE 12.7 mph 17.3 mph N/A Snow Light Snow
7:35 AM 14.0 °F -0.2 °F 10.4 °F 86% 30.11 in 1.2 mi SSE 12.7 mph - N/A Snow Light Snow
7:55 AM 14.0 °F 2.9 °F 10.4 °F 86% 30.10 in 1.2 mi SE 8.1 mph 17.3 mph N/A Snow Snow
8:35 AM 12.2 °F -1.0 °F 10.4 °F 92% 30.09 in 1.0 mi SE 10.4 mph - N/A Snow Light Snow
8:54 AM 12.2 °F -1.0 °F 8.6 °F 85% 30.09 in 0.8 mi SE 10.4 mph - N/A Snow Light Snow
9:15 AM 12.2 °F -0.2 °F 10.4 °F 92% 30.08 in 0.8 mi SE 9.2 mph - N/A Snow Light Snow
9:35 AM 12.2 °F -1.8 °F 10.4 °F 92% 30.07 in 0.5 mi SE 11.5 mph - N/A Snow Snow
9:54 AM 12.2 °F -1.0 °F 10.4 °F 92% 30.06 in 1.0 mi SE 10.4 mph - N/A Snow Light Snow
10:15 AM 14.0 °F 0.5 °F 10.4 °F 86% 30.05 in 2.5 mi SE 11.5 mph - N/A Snow Light Snow
10:34 AM 14.0 °F -0.2 °F 10.4 °F 86% 30.04 in 1.2 mi SE 12.7 mph 16.1 mph N/A Snow Light Snow
10:54 AM 14.0 °F -0.2 °F 10.4 °F 86% 30.03 in 1.5 mi SE 12.7 mph 18.4 mph N/A Snow Light Snow
11:15 AM 15.8 °F 0.9 °F 10.4 °F 79% 30.02 in 3.0 mi SE 15.0 mph 19.6 mph N/A Snow Light Snow
11:34 AM 15.8 °F 2.7 °F 12.2 °F 86% 30.01 in 2.0 mi SE 11.5 mph - N/A Snow Light Snow
11:55 AM 15.8 °F 0.9 °F 12.2 °F 86% 29.99 in 1.5 mi SE 15.0 mph - N/A Snow Light Snow
12:14 PM 15.8 °F 2.1 °F 12.2 °F 86% 29.98 in 1.5 mi SE 12.7 mph 16.1 mph N/A Snow Light Snow
12:35 PM 15.8 °F 1.4 °F 12.2 °F 86% 29.97 in 2.0 mi ESE 13.8 mph - N/A Snow Light Snow
12:54 PM 15.8 °F 0.9 °F 12.2 °F 86% 29.96 in 1.5 mi SE 15.0 mph - N/A Snow Light Snow
1:14 PM 17.6 °F 4.3 °F 12.2 °F 79% 29.95 in 1.5 mi ESE 12.7 mph - N/A Snow Light Snow
1:35 PM 17.6 °F 3.2 °F 12.2 °F 79% 29.93 in 2.5 mi SE 15.0 mph 18.4 mph N/A Snow Light Snow
2:15 PM 17.6 °F 3.7 °F 12.2 °F 79% 29.92 in 1.8 mi ESE 13.8 mph - N/A Snow Light Snow
2:35 PM 17.6 °F 4.3 °F 14.0 °F 86% 29.92 in 1.2 mi ESE 12.7 mph 17.3 mph N/A Snow Light Snow
2:54 PM 17.6 °F 3.2 °F 12.2 °F 79% 29.91 in 2.5 mi ESE 15.0 mph - N/A Snow Light Snow
3:15 PM 17.6 °F 5.0 °F 14.0 °F 86% 29.91 in 2.0 mi ESE 11.5 mph - N/A Snow Light Snow
3:34 PM 17.6 °F 5.0 °F 14.0 °F 86% 29.92 in 1.8 mi ESE 11.5 mph - N/A Snow Light Snow
3:55 PM 17.6 °F 5.0 °F 14.0 °F 86% 29.92 in 3.0 mi East 11.5 mph - N/A Snow Light Snow
4:15 PM 17.6 °F 5.7 °F 14.0 °F 86% 29.92 in 2.5 mi ESE 10.4 mph - N/A Snow Light Snow
4:34 PM 17.6 °F 7.3 °F 14.0 °F 86% 29.92 in 2.5 mi ESE 8.1 mph - N/A Snow Light Snow
4:55 PM 17.6 °F 9.3 °F 14.0 °F 86% 29.93 in 3.0 mi East 5.8 mph - N/A Snow Light Snow
5:15 PM 17.6 °F 9.3 °F 14.0 °F 86% 29.93 in 5.0 mi East 5.8 mph - N/A Snow Light Snow
5:34 PM 17.6 °F 8.2 °F 14.0 °F 86% 29.94 in 2.5 mi East 6.9 mph - N/A Snow Light Snow
5:55 PM 15.8 °F 7.2 °F 14.0 °F 93% 29.95 in 4.0 mi ESE 5.8 mph - N/A Snow Light Snow
6:14 PM 15.8 °F 10.2 °F 14.0 °F 93% 29.95 in 3.0 mi ESE 3.5 mph - N/A Snow Light Snow
6:34 PM 15.8 °F - 12.2 °F 86% 29.96 in 3.0 mi Calm Calm - N/A Snow Light Snow
6:55 PM 15.8 °F - 12.2 °F 86% 29.96 in 4.0 mi Calm Calm - N/A Snow Light Snow
7:14 PM 15.8 °F 10.2 °F 12.2 °F 86% 29.96 in 2.0 mi ESE 3.5 mph - N/A Snow Light Snow
7:34 PM 12.2 °F - 10.4 °F 92% 29.96 in 3.0 mi Calm Calm - N/A Snow Light Snow
7:55 PM 15.8 °F - 12.2 °F 86% 29.96 in 7.0 mi Calm Calm - N/A Snow Light Snow
8:14 PM 15.8 °F - 12.2 °F 86% 29.97 in 4.0 mi Calm Calm - N/A Snow Light Snow
8:35 PM 15.8 °F 10.2 °F 12.2 °F 86% 29.96 in 7.0 mi East 3.5 mph - N/A Snow Light Snow
8:55 PM 15.8 °F 10.2 °F 12.2 °F 86% 29.96 in 7.0 mi East 3.5 mph - N/A Snow Light Snow
9:14 PM 15.8 °F - 12.2 °F 86% 29.96 in 5.0 mi Calm Calm - N/A Snow Light Snow
9:35 PM 15.8 °F - 12.2 °F 86% 29.97 in 4.0 mi Calm Calm - N/A Snow Light Snow
9:55 PM 15.8 °F - 12.2 °F 86% 29.97 in 3.0 mi Calm Calm - N/A Snow Light Snow
10:14 PM 15.8 °F 7.2 °F 12.2 °F 86% 29.99 in 5.0 mi West 5.8 mph - N/A Snow Light Snow
10:35 PM 15.8 °F - 12.2 °F 86% 29.99 in 3.0 mi Calm Calm - N/A Snow Light Snow
10:54 PM 15.8 °F - 12.2 °F 86% 29.99 in 3.0 mi Calm Calm - N/A Snow Light Snow
11:14 PM 15.8 °F - 12.2 °F 86% 30.00 in 2.5 mi Calm Calm - N/A Snow Light Snow
11:35 PM 15.8 °F 10.2 °F 12.2 °F 86% 30.01 in 4.0 mi NNW 3.5 mph - N/A Snow Light Snow
11:54 PM 15.8 °F - 12.2 °F 86% 30.01 in 5.0 mi Calm Calm - N/A Snow Light Snow